Wind_Speed
5 5 7 8 5 1 6 5 12 8 11 15 9 11 17 15 14 5 11 9 17 15 12 11 11 10 9 7 9 10 9 8 8 8 9 10 11 12 11 12 12 13 13 14 13 13 14 13 12
9 4 8 5 6 3 4 8 13 13 12 13 9 13 13 17 15 13 12 8 12 13 16 12 11 9 8 6 9 10 10 8 8 8 9 10 11 11 12 13 11 14 14 13 12 13 13 12 12
8 7 8 5 2 4 10 10 13 9 6 7 7 9 8 10 12 11 14 12 16 18 14 13 12 10 8 8 9 10 11 9 8 8 11 11 11 12 14 14 13 14 13 14 13 13 11 9 8
7 6 6 7 9 14 12 9 10 10 9 9 11 12 14 8 14 19 15 14 16 15 15 14 12 11 9 9 10 12 11 10 10 8 13 13 14 13 12 14 13 14 14 14 13 12 9 6 6
9 6 9 6 3 9 12 8 5 7 7 8 6 17 16 19 18 22 17 17 16 18 17 15 14 13 14 11 11 11 10 10 11 11 13 14 14 14 13 14 13 14 14 14 13 10 7 7 9
2 4 3 4 5 12 10 4 7 9 9 8 16 17 15 16 16 19 23 17 20 16 17 16 16 16 18 15 13 14 11 12 12 12 14 16 15 12 13 13 13 12 12 12 11 8 8 9 8
4 2 2 4 7 8 8 6 8 8 10 12 13 16 12 14 15 15 27 24 16 20 20 16 15 15 17 21 15 15 14 14 15 15 18 16 16 12 13 12 12 11 11 10 9 7 7 7 6
7 3 3 5 3 6 5 7 4 7 12 8 5 5 16 17 16 16 15 21 20 16 17 16 16 15 17 17 16 16 17 18 17 14 15 13 11 11 10 12 11 10 9 9 8 6 6 8 8
7 1 4 7 14 4 3 9 2 2 8 8 2 17 22 21 17 16 17 18 16 20 19 15 15 15 14 15 17 18 16 17 18 16 12 13 10 10 9 9 9 8 8 8 6 4 4 6 10
5 5 3 11 8 12 6 7 8 10 10 9 11 19 24 20 16 14 14 15 17 20 16 11 21 18 15 16 16 17 16 16 17 15 11 11 8 7 10 8 9 7 7 7 5 5 6 7 9
4 3 8 5 7 10 10 2 2 8 7 12 15 18 19 18 16 14 14 12 15 14 14 15 12 13 14 15 19 18 15 14 11 5 6 11 8 8 9 7 7 6 7 6 6 6 7 3 5
4 7 13 5 8 11 8 7 8 14 5 13 16 17 16 16 14 14 17 13 14 12 13 13 12 5 11 11 15 18 15 17 13 8 8 8 8 6 8 8 8 8 6 6 5 3 5 0 2
13 9 13 10 10 12 7 0 2 14 7 14 14 14 15 14 14 12 14 14 12 12 13 11 11 10 10 7 13 15 15 12 11 10 8 8 9 9 8 7 9 7 8 7 3 4 2 1 3
10 9 12 15 10 4 6 6 7 7 5 14 12 13 13 12 14 12 14 14 13 12 12 12 14 12 9 7 6 11 9 11 10 10 8 4 10 6 10 8 10 8 4 6 6 3 4 3 4
12 14 10 13 9 5 10 5 5 8 6 13 11 11 13 12 14 13 12 13 14 12 12 12 13 11 10 10 11 8 10 11 10 9 9 7 7 3 8 4 7 9 5 6 6 3 1 5 4
7 12 6 8 11 5 3 2 13 16 8 10 12 12 12 13 14 14 13 13 13 15 13 12 13 13 9 11 7 7 7 11 9 11 9 7 7 7 4 8 5 7 5 5 4 2 2 3 3
12 5 12 10 10 12 10 8 20 17 11 11 11 14 13 13 14 13 14 14 12 16 13 13 11 12 10 9 8 6 6 7 9 9 9 8 6 5 4 4 5 5 4 3 2 4 3 3 2
17 5 7 9 11 10 7 5 13 15 11 10 11 11 13 13 14 14 15 14 16 14 14 13 13 12 7 9 4 6 8 9 9 8 6 7 7 5 4 5 3 4 4 4 2 3 3 3 4
9 5 8 8 8 8 14 14 12 17 12 12 12 13 11 16 13 18 13 14 15 15 14 14 13 12 10 8 9 9 10 8 8 7 5 7 6 5 4 5 5 3 1 7 2 2 2 2 4
8 1 4 6 7 9 8 8 14 16 16 11 12 9 10 13 12 22 17 16 16 14 14 15 14 13 11 9 10 6 8 9 8 8 5 6 6 5 4 2 3 5 6 2 2 3 4 3 6
12 3 5 13 9 8 5 9 12 13 17 17 14 14 8 9 13 13 15 17 17 18 14 16 16 14 12 9 7 5 5 4 7 9 7 8 6 5 4 3 1 2 4 9 3 1 3 9 2
1 7 4 7 8 2 24 3 19 16 13 15 18 14 13 12 10 9 19 19 19 19 17 15 16 16 14 12 12 10 10 10 12 10 11 8 7 6 5 4 5 4 5 3 2 0 3 5 8
4 4 6 6 12 13 16 8 7 15 17 17 14 18 19 17 16 19 15 22 22 21 20 17 16 18 15 14 9 10 12 7 10 10 12 7 8 6 6 5 5 5 6 4 1 1 4 3 7
4 6 7 10 11 9 0 8 9 3 8 11 18 17 15 20 12 13 17 23 20 21 21 21 18 19 17 16 14 12 9 6 6 12 11 11 10 10 8 7 5 6 5 4 4 3 3 4 5
11 16 5 6 5 8 12 7 9 3 9 6 3 15 19 19 16 18 14 17 21 25 22 24 21 19 20 17 15 15 11 8 5 7 12 13 16 15 14 9 6 5 6 5 4 3 3 3 3
14 17 10 7 8 6 6 0 6 6 8 9 3 2 16 17 17 17 15 16 16 18 21 21 24 20 20 19 17 15 14 12 11 12 9 11 17 16 18 10 7 6 7 6 6 6 7 7 4
6 8 14 9 7 5 5 5 10 5 7 7 8 9 7 10 16 11 16 18 18 19 19 20 22 20 20 20 19 18 16 16 15 11 12 13 8 6 10 9 10 8 9 7 6 6 6 5 4
14 13 6 6 2 10 2 4 10 9 6 5 5 11 7 6 8 16 14 18 18 21 20 21 20 21 21 20 20 19 18 17 15 11 10 10 13 13 9 10 10 10 9 9 9 10 11 7 8
8 10 8 12 7 3 3 7 10 12 6 4 8 5 8 8 6 5 10 12 17 17 21 24 23 22 21 22 20 19 19 19 17 18 16 14 9 6 9 8 9 10 11 11 10 11 7 7 8
11 9 8 6 8 6 8 7 11 12 11 5 8 9 8 5 4 5 13 16 18 14 11 15 23 21 22 22 20 19 19 19 20 19 20 18 16 14 14 13 14 14 12 12 12 12 11 12 10
Wind_Direction
201 211 234 253 263 60 54 87 101 116 87 74 58 76 64 38 19 69 106 104 126 127 140 142 143 144 133 119 128 131 137 141 137 138 126 122 114 115 109 110 120 124 122 112 118 111 103 104 103
225 226 242 273 254 278 87 87 71 54 83 93 84 74 89 73 84 94 94 100 115 133 130 136 150 156 152 148 140 144 145 147 145 147 136 128 121 125 126 110 114 121 115 118 112 108 107 106 106
259 233 272 248 38 220 96 67 78 75 119 119 93 59 36 93 55 102 103 111 91 103 112 115 123 137 147 155 156 145 146 151 147 154 154 143 138 133 126 124 122 120 124 125 115 114 107 108 111
234 216 249 260 306 84 95 80 112 108 68 55 119 92 71 56 94 104 109 109 110 108 105 107 111 120 131 151 159 142 139 139 134 154 151 150 141 133 132 131 124 135 132 119 115 112 109 109 122
230 271 255 133 277 101 71 54 95 91 68 116 95 98 90 91 110 114 108 114 106 111 108 102 103 110 109 114 137 137 132 136 141 138 138 135 132 137 133 130 132 130 122 121 121 110 106 113 123
291 292 300 140 173 108 100 12 76 83 98 109 105 105 102 118 120 121 124 122 112 110 103 100 104 106 111 90 117 123 126 128 126 131 130 128 120 125 128 128 129 128 122 124 119 112 105 113 117
171 137 269 139 160 121 97 348 59 93 111 109 144 112 129 138 126 118 120 111 111 107 99 102 101 95 110 105 105 108 108 107 124 119 120 116 125 141 143 130 128 131 131 131 122 112 103 104 115
279 124 154 122 187 131 110 93 355 62 87 119 89 153 151 131 140 123 131 126 125 115 118 111 106 103 106 126 119 110 96 108 119 125 123 127 135 140 137 131 132 140 144 132 126 111 102 86 96
247 33 236 153 177 127 148 122 62 278 121 41 303 144 132 145 143 137 123 120 115 111 125 122 125 109 125 128 122 109 110 106 130 120 129 143 147 137 132 136 142 154 149 137 132 117 114 119 96
218 32 303 39 54 145 148 118 172 164 124 111 102 107 132 147 153 142 130 139 131 120 122 130 133 142 137 132 133 126 118 105 127 149 150 156 153 142 127 146 146 158 151 140 141 138 152 179 174
41 47 106 41 108 144 144 166 356 185 113 135 130 134 146 153 155 156 135 135 117 126 135 120 120 153 148 142 148 152 150 143 143 166 205 156 133 137 126 133 138 155 150 165 170 220 232 39 47
101 42 93 63 99 133 148 185 231 73 108 110 134 143 148 161 161 158 136 133 146 138 124 132 132 111 124 148 148 147 156 156 151 149 136 150 150 150 149 147 135 164 182 150 192 114 72 138 67
86 96 116 109 95 108 167 286 136 136 167 120 134 149 154 159 146 141 139 138 138 142 124 137 131 138 135 153 145 142 154 161 124 156 152 137 133 131 122 136 164 146 145 162 153 108 64 124 94
95 109 114 120 99 101 70 9 351 114 120 129 151 154 159 147 138 138 145 149 153 145 139 137 141 134 131 121 128 147 159 133 150 141 154 126 130 149 131 170 143 156 188 114 105 44 77 76 98
138 134 133 115 122 109 105 344 333 325 165 152 164 163 146 146 135 157 155 154 153 160 142 149 144 139 135 135 152 162 146 161 151 142 152 154 137 146 140 147 167 148 107 133 124 158 148 93 69
155 148 139 137 147 138 151 215 288 293 265 174 168 150 155 146 159 153 161 161 151 143 153 161 159 148 160 121 154 169 131 154 156 159 163 156 142 142 177 189 138 139 179 133 109 61 127 65 77
134 205 133 155 170 154 165 170 212 236 267 181 181 157 171 162 151 158 157 162 161 140 158 164 157 159 157 147 142 129 153 162 168 170 167 164 152 157 161 157 144 211 163 130 262 100 339 124 5
260 87 95 145 170 179 204 195 161 195 212 235 203 186 176 169 163 169 167 165 161 152 166 170 171 142 163 153 154 154 152 170 169 170 181 175 170 161 172 154 156 202 175 173 74 353 25 322 339
297 49 99 94 129 211 186 156 162 173 191 206 228 161 214 185 169 169 179 161 160 162 170 180 185 156 180 185 196 161 170 167 181 181 170 184 174 163 167 155 163 195 304 37 130 230 136 69 6
292 48 85 128 161 233 146 176 160 173 193 202 222 228 193 186 187 156 172 172 171 167 180 179 188 183 196 197 222 188 181 169 184 184 183 186 178 170 164 191 178 230 125 107 120 0 349 75 32
237 241 142 157 189 250 227 4 161 179 178 195 206 250 241 157 192 180 185 180 181 166 182 185 187 188 189 188 179 175 205 98 190 162 193 193 184 177 160 185 352 218 243 156 158 69 359 347 85
150 353 206 235 115 76 282 199 315 162 190 193 195 205 239 222 157 225 183 188 182 169 176 183 184 186 188 193 186 191 203 175 199 177 181 181 189 185 185 197 200 213 285 66 166 34 348 336 342
66 147 264 259 268 170 241 258 185 165 180 191 214 196 195 235 227 184 227 185 177 174 173 182 185 186 190 195 189 194 219 146 194 169 142 204 187 192 197 197 203 211 219 164 80 315 348 311 315
345 210 226 243 250 261 32 285 107 259 107 176 179 203 190 214 217 229 203 167 166 187 174 174 184 186 188 189 195 210 230 253 335 171 168 187 190 199 204 199 198 214 229 226 229 241 271 318 350
226 222 130 300 357 320 213 282 70 182 107 71 132 174 181 197 209 233 190 181 178 172 186 173 180 191 190 191 197 203 210 208 188 200 206 203 194 191 187 190 204 216 220 212 223 237 255 264 312
209 263 277 285 182 186 113 327 88 59 97 110 162 316 177 179 203 220 200 194 174 188 185 184 173 193 195 194 199 197 200 206 211 205 231 225 176 215 159 183 211 216 207 208 214 219 234 213 247
150 255 277 298 198 266 140 169 136 108 128 130 125 158 182 204 190 210 213 210 191 192 193 194 177 193 199 201 198 192 193 210 213 220 208 228 242 151 170 200 211 209 205 208 210 229 234 266 261
282 331 213 216 185 261 138 221 128 187 95 133 190 124 123 156 208 185 209 206 203 190 196 195 194 192 204 205 201 198 193 201 216 221 227 235 236 237 167 191 210 215 216 219 225 235 218 224 251
189 238 237 286 336 298 103 10 93 120 110 86 104 108 112 126 144 172 190 214 213 205 191 195 197 198 203 208 202 201 199 204 206 207 211 234 244 237 236 213 229 225 226 229 229 245 279 204 234
303 282 242 224 191 291 326 129 101 120 128 116 105 98 92 74 102 168 176 210 208 216 228 211 192 204 204 210 206 206 202 204 208 214 211 210 221 219 226 224 223 223 230 239 221 232 243 224 233
Height
770 768 766 761 777 775 775 757 737 751 758 746 749 759 769 768 774 802 787 791 795 798 802 805 806 808 810 812 812 813 815 817 818 819 820 821 821 821 822 822 823 824 825 827 827 827 828 828 829
767 766 764 758 774 796 771 743 753 747 745 749 753 761 769 782 775 783 791 796 797 799 801 805 807 810 811 813 814 815 816 818 820 822 822 822 822 823 823 824 825 827 827 828 829 830 830 831 831
768 765 761 757 779 802 774 753 754 753 748 748 762 760 765 781 779 788 795 798 800 802 804 807 809 811 812 814 815 817 818 820 821 823 823 825 825 824 826 825 828 831 829 830 832 833 833 833 833
764 760 757 767 774 767 755 753 751 755 752 753 758 780 777 778 782 791 797 800 802 804 807 809 811 812 813 815 816 817 819 821 822 824 825 825 826 827 828 829 831 832 832 833 833 834 835 835 835
763 753 769 774 782 757 756 754 754 757 758 761 758 779 785 785 788 793 799 803 803 806 809 812 812 813 814 816 818 820 821 822 824 826 827 827 829 831 831 831 832 833 834 835 836 837 838 837 836
769 759 784 794 786 763 765 758 756 758 762 765 770 777 787 789 791 790 799 804 807 809 812 814 815 815 816 819 820 822 823 824 825 827 829 830 831 833 833 834 835 837 836 837 838 839 839 838 838
769 778 787 786 789 778 775 762 761 760 760 765 764 783 786 787 792 792 797 806 809 811 815 817 818 818 818 818 823 825 826 826 827 827 831 832 834 833 835 835 838 838 838 839 839 840 840 839 839
751 767 782 784 799 790 778 773 765 761 771 763 763 786 790 788 793 795 797 803 809 812 816 819 820 822 823 821 825 827 828 828 831 835 834 835 834 836 837 837 839 839 841 840 841 841 841 841 840
745 778 774 770 788 795 778 777 774 765 765 766 765 764 777 790 793 795 797 805 810 815 817 819 822 822 826 828 827 829 831 832 832 835 836 837 836 837 839 839 839 841 841 842 842 842 842 841 840
748 765 783 765 769 780 785 775 772 767 767 773 770 774 784 790 792 795 795 800 806 814 818 820 821 825 829 831 831 832 834 832 833 835 835 837 838 838 839 840 840 842 843 842 843 843 840 838 838
748 770 766 778 769 778 784 784 767 768 775 768 778 780 785 790 791 793 796 799 807 810 814 820 823 825 827 830 831 833 834 834 836 835 835 838 839 840 841 841 842 844 842 843 843 841 840 839 838
775 757 767 778 771 778 789 778 771 771 786 762 773 779 784 787 787 790 795 802 807 812 815 821 824 825 827 828 829 831 834 835 835 836 838 840 839 840 840 840 842 842 841 843 842 841 842 841 841
753 762 766 773 774 778 781 780 772 779 769 767 774 779 782 782 786 791 796 803 808 811 816 821 824 828 829 828 829 831 832 834 836 837 838 839 840 841 839 841 841 840 842 843 842 842 842 842 841
754 758 762 774 784 785 790 789 776 773 769 771 777 779 781 782 787 794 798 804 808 811 816 822 825 828 830 830 830 832 834 835 836 838 840 840 840 840 842 841 841 842 839 841 842 843 842 842 842
750 771 766 767 785 786 789 800 789 775 772 774 776 777 780 784 790 797 800 804 807 812 817 822 825 828 830 833 833 832 834 836 836 839 843 843 843 841 842 841 840 841 843 845 845 844 843 842 843
754 762 777 770 772 787 789 826 801 788 775 780 777 776 782 785 790 795 800 803 807 812 818 822 822 827 830 832 833 833 832 835 837 839 842 843 843 844 842 841 840 843 843 843 843 843 842 842 842
760 776 772 777 765 776 790 808 799 791 780 778 778 776 781 784 790 794 799 802 808 812 818 821 824 826 830 834 833 834 837 836 837 839 840 843 843 844 843 841 843 845 843 842 842 843 843 842 840
790 765 759 778 767 768 779 783 784 785 784 781 778 777 781 784 786 793 796 801 806 813 817 820 824 826 830 832 834 833 836 837 838 838 840 842 843 844 844 844 844 844 843 843 843 844 844 842 842
746 749 763 758 757 762 771 772 773 779 784 780 779 778 780 782 784 790 794 798 804 810 817 820 823 826 830 831 830 832 833 835 837 838 841 842 843 844 844 843 844 844 843 844 845 844 842 840 842
745 751 765 758 755 760 760 762 762 767 780 778 777 776 779 777 792 791 789 795 800 809 815 819 822 826 829 830 829 829 831 833 835 837 840 842 843 844 844 844 844 843 843 846 846 845 841 842 844
746 747 754 788 756 752 756 790 766 765 765 775 781 773 772 779 777 781 785 793 798 804 813 817 821 824 827 828 829 832 833 833 835 836 839 841 842 844 845 845 845 846 844 844 846 846 844 841 843
752 740 748 753 783 840 766 809 803 762 769 769 768 780 777 768 784 780 781 788 794 799 808 814 818 822 826 828 828 830 831 831 832 834 835 839 842 843 845 846 847 847 845 845 847 846 845 845 841
747 742 747 753 752 774 772 756 778 748 764 763 764 762 770 775 767 771 782 781 787 795 803 811 817 820 823 827 829 831 830 830 831 832 835 837 841 843 844 846 847 848 848 848 848 848 846 845 844
734 746 747 746 748 769 761 756 765 785 743 747 749 753 764 768 765 766 772 782 783 792 797 805 814 817 821 825 828 829 829 831 830 831 835 836 839 842 844 845 846 847 847 848 848 848 847 846 845
743 745 788 801 805 781 751 754 760 744 737 738 746 747 759 764 770 764 768 774 779 787 793 800 809 815 818 821 825 828 830 832 833 833 833 833 835 836 840 843 845 846 847 847 848 848 848 848 847
745 739 765 805 797 755 738 760 754 733 730 737 747 740 742 751 761 758 762 769 776 782 789 795 803 811 815 818 822 825 828 831 832 833 831 830 831 833 835 840 843 845 846 847 847 848 847 846 847
737 754 722 743 730 758 746 744 732 733 735 738 741 747 747 749 755 758 763 765 773 779 786 792 799 808 812 815 818 821 825 829 829 829 832 831 831 830 834 838 841 843 845 845 846 846 847 847 847
734 725 750 744 778 778 770 755 764 750 746 740 739 739 748 747 751 753 761 764 770 776 782 789 795 803 808 811 814 818 821 824 827 828 830 830 828 830 832 837 839 841 843 844 845 845 845 846 847
741 746 738 729 739 762 769 778 730 742 742 742 742 741 744 748 752 755 759 765 768 772 776 783 790 797 804 807 809 813 817 820 823 825 827 829 828 831 834 836 838 839 840 842 843 844 843 844 845
718 727 731 748 763 742 747 769 728 734 736 740 744 744 749 752 751 754 761 765 765 772 775 779 784 790 796 801 805 809 813 816 818 821 822 824 827 830 832 834 835 837 838 839 840 841 840 841 842